Hamilton, OH

8:11 PM EST on November 24, 2017 (GMT -0500)
Butler County Regional

Weather History for KHAO - June, 2013

Change the Weather History Date:

Saturday, June 29, 2013

  Actual Average (KLUK) Record (KLUK)
Temperature  
Mean Temperature 67 °F -  
Max Temperature 77 °F 85 °F 100 °F (2012)
Min Temperature 59 °F 65 °F 55 °F (2000)
Cooling Degree Days 2    
Growing Degree Days 17 (Base 50)    
Moisture  
Dew Point 63 °F    
Average Humidity 86    
Maximum Humidity 100    
Minimum Humidity 69    
Precipitation  
Precipitation 0.08 in - - ()
Sea Level Pressure  
Sea Level Pressure 29.63 in    
Wind  
Wind Speed 1 mph (WNW)    
Max Wind Speed 9 mph    
Max Gust Speed -    
Visibility 7 miles    
Events Fog , Rain , Thunderstorm    
Averages and records for this station are not official NWS values.
T = Trace of Precipitation, MM = Missing Value Source: NWS Daily Summary

Daily Weather History Graph

Daily Weather History Graph

Search for Another Location

Airport or City:

Trip Planner

Search our weather history database for the weather conditions in past years. The results will help you decide how hot, cold, wet, or windy it might be!

Date:

Astronomy

Jun. 29, 2013 Rise Set
Actual Time 6:14 AM EDT 9:08 PM EDT
Civil Twilight 5:41 AM EDT 9:41 PM EDT
Nautical Twilight 5:01 AM EDT 10:21 PM EDT
Astronomical Twilight 4:14 AM EDT 11:08 PM EDT
Moon 12:39 AM EDT (6/29) 1:22 PM EDT (6/29)
Length of Visible Light 15h 59m
Length of Day
14h 54m
Waning Gibbous, 56% of the Moon is Illuminated
Jun 29
Waning Gibbous
Jun 30
Last Quarter
Jul 8
New
Jul 15
First Quarter
Jul 22
Full

Hourly Weather History & Observations

Time (EDT) Temp. Dew Point Humidity Pressure Visibility Wind Dir Wind Speed Gust Speed Precip Events Conditions
12:53 AM 64.9 °F 63.0 °F 93% 29.62 in 10.0 mi Calm Calm - 0.03 in   Scattered Clouds
1:53 AM 64.9 °F 63.0 °F 93% 29.61 in 9.0 mi Calm Calm - 0.00 in   Clear
2:53 AM 63.0 °F 62.1 °F 97% 29.60 in 5.0 mi Calm Calm - N/A   Scattered Clouds
3:02 AM 62.6 °F 62.6 °F 100% 29.61 in 1.8 mi Calm Calm - N/A   Partly Cloudy
3:15 AM 62.6 °F 60.8 °F 94% 29.61 in 3.0 mi Calm Calm - N/A   Clear
3:41 AM 62.6 °F 60.8 °F 94% 29.61 in 1.8 mi Calm Calm - N/A   Mostly Cloudy
3:46 AM 62.6 °F 60.8 °F 94% 29.61 in 0.8 mi Calm Calm - N/A   Mostly Cloudy
3:53 AM 63.0 °F 62.1 °F 97% 29.60 in 0.5 mi Calm Calm - N/A Fog Fog
4:16 AM 62.6 °F 60.8 °F 94% 29.61 in 0.5 mi Calm Calm - N/A Fog Fog
4:40 AM 62.6 °F 60.8 °F 94% 29.61 in 1.2 mi Calm Calm - N/A   Scattered Clouds
4:49 AM 62.6 °F 60.8 °F 94% 29.61 in 1.8 mi Calm Calm - N/A   Scattered Clouds
4:53 AM 62.1 °F 60.1 °F 93% 29.60 in 1.8 mi Calm Calm - N/A   Scattered Clouds
4:58 AM 60.8 °F 60.8 °F 100% 29.61 in 3.0 mi Calm Calm - N/A   Partly Cloudy
5:18 AM 60.8 °F 59.0 °F 94% 29.61 in 1.5 mi Calm Calm - N/A   Partly Cloudy
5:20 AM 60.8 °F 59.0 °F 94% 29.61 in 0.8 mi Calm Calm - N/A   Mist
5:53 AM 60.1 °F 59.0 °F 96% 29.60 in 0.5 mi Calm Calm - N/A Fog Fog
5:59 AM 60.8 °F 59.0 °F 94% 29.62 in 1.2 mi Calm Calm - N/A   Scattered Clouds
6:02 AM 60.8 °F 59.0 °F 94% 29.62 in 2.0 mi Calm Calm - N/A   Partly Cloudy
6:12 AM 59.0 °F 59.0 °F 100% 29.62 in 1.2 mi Calm Calm - N/A   Clear
6:20 AM 60.8 °F 59.0 °F 94% 29.62 in 0.2 mi Calm Calm - N/A Fog Fog
6:46 AM 60.8 °F 60.8 °F 100% 29.62 in 1.0 mi Calm Calm - N/A   Clear
6:53 AM 61.0 °F 61.0 °F 100% 29.62 in 2.0 mi Calm Calm - N/A   Clear
7:02 AM 62.6 °F 60.8 °F 94% 29.63 in 3.0 mi Calm Calm - N/A   Clear
7:53 AM 64.9 °F 64.0 °F 97% 29.62 in 10.0 mi Calm Calm - N/A   Clear
8:08 AM 64.4 °F 64.4 °F 100% 29.63 in 10.0 mi Calm Calm - N/A   Partly Cloudy
8:53 AM 68.0 °F 64.0 °F 87% 29.62 in 10.0 mi Variable 3.5 mph - N/A   Partly Cloudy
9:22 AM 69.8 °F 64.4 °F 83% 29.64 in 10.0 mi Variable 4.6 mph - N/A   Mostly Cloudy
9:38 AM 69.8 °F 64.4 °F 83% 29.64 in 10.0 mi Variable 3.5 mph - N/A   Mostly Cloudy
9:53 AM 70.0 °F 64.9 °F 84% 29.63 in 10.0 mi Calm Calm - N/A   Mostly Cloudy
10:13 AM 71.6 °F 64.4 °F 78% 29.64 in 10.0 mi WNW 5.8 mph - N/A   Overcast
10:38 AM 73.4 °F 64.4 °F 73% 29.63 in 10.0 mi WSW 3.5 mph - N/A   Mostly Cloudy
10:53 AM 73.0 °F 64.9 °F 76% 29.62 in 10.0 mi WNW 6.9 mph - N/A   Mostly Cloudy
11:01 AM 71.6 °F 64.4 °F 78% 29.64 in 10.0 mi WNW 5.8 mph - N/A   Overcast
11:14 AM 75.2 °F 64.4 °F 69% 29.63 in 10.0 mi Variable 5.8 mph - N/A   Mostly Cloudy
11:53 AM 73.9 °F 64.0 °F 71% 29.62 in 10.0 mi WNW 6.9 mph - N/A   Overcast
12:39 PM 71.6 °F 64.4 °F 78% 29.63 in 8.0 mi WSW 3.5 mph - 0.01 in Rain , Thunderstorm Light Rain
12:53 PM 72.0 °F 66.9 °F 84% 29.62 in 10.0 mi SW 4.6 mph - 0.01 in Thunderstorm Mostly Cloudy
1:01 PM 71.6 °F 66.2 °F 83% 29.63 in 10.0 mi SSW 3.5 mph - N/A Thunderstorm Mostly Cloudy
1:28 PM 71.6 °F 68.0 °F 88% 29.63 in 3.0 mi Calm Calm - 0.01 in Rain Light Rain
1:53 PM 70.0 °F 66.9 °F 90% 29.62 in 4.0 mi Calm Calm - 0.03 in Rain Rain
2:16 PM 69.8 °F 66.2 °F 88% 29.63 in 10.0 mi WSW 3.5 mph - 0.00 in Thunderstorm Scattered Clouds
2:31 PM 71.6 °F 66.2 °F 83% 29.63 in 10.0 mi Calm Calm - 0.00 in   Partly Cloudy
2:53 PM 73.9 °F 68.0 °F 82% 29.62 in 10.0 mi Variable 4.6 mph - 0.00 in   Clear
3:53 PM 73.9 °F 66.0 °F 76% 29.61 in 10.0 mi Calm Calm - N/A   Clear
4:53 PM 75.0 °F 64.0 °F 69% 29.62 in 10.0 mi Variable 5.8 mph - N/A   Partly Cloudy
5:43 PM 75.2 °F 64.4 °F 69% 29.63 in 10.0 mi West 4.6 mph - N/A Thunderstorm Thunderstorm
5:53 PM 75.0 °F 64.9 °F 71% 29.62 in 10.0 mi Variable 3.5 mph - N/A Thunderstorm Scattered Clouds
6:26 PM 75.2 °F 66.2 °F 73% 29.61 in 10.0 mi Calm Calm - N/A   Overcast
6:53 PM 75.9 °F 66.0 °F 71% 29.62 in 10.0 mi SSW 3.5 mph - N/A   Mostly Cloudy
7:53 PM 73.0 °F 64.9 °F 76% 29.63 in 10.0 mi WSW 3.5 mph - N/A   Clear
8:53 PM 70.0 °F 66.9 °F 90% 29.65 in 10.0 mi SSE 4.6 mph - 0.01 in   Mostly Cloudy
9:05 PM 69.8 °F 66.2 °F 88% 29.66 in 10.0 mi Calm Calm - N/A   Mostly Cloudy
9:14 PM 71.6 °F 66.2 °F 83% 29.67 in 10.0 mi NNE 9.2 mph - N/A   Overcast
9:22 PM 71.6 °F 62.6 °F 73% 29.66 in 10.0 mi NNE 4.6 mph - N/A   Overcast
9:45 PM 69.8 °F 62.6 °F 78% 29.66 in 10.0 mi NE 6.9 mph - N/A   Overcast
9:53 PM 70.0 °F 63.0 °F 78% 29.65 in 10.0 mi ENE 6.9 mph - N/A   Overcast
10:45 PM 69.8 °F 64.4 °F 83% 29.68 in 10.0 mi Calm Calm - N/A   Overcast
10:53 PM 69.1 °F 63.0 °F 81% 29.68 in 10.0 mi NNE 3.5 mph - N/A Thunderstorm Thunderstorm
11:45 PM 66.2 °F 62.6 °F 88% 29.67 in 10.0 mi NE 4.6 mph - N/A   Scattered Clouds
11:53 PM 66.9 °F 62.1 °F 84% 29.67 in 10.0 mi ENE 4.6 mph - N/A   Partly Cloudy